Weather History for Mount Pleasant, TX

Change the Weather History Date:

Thursday, August 29, 2013

  Actual Average (KGGG) Record (KGGG)
Temperature  
Mean Temperature 86 °F 81 °F  
Max Temperature 101 °F 93 °F 103 °F (2000)
Min Temperature 71 °F 70 °F 55 °F (1992)
Degree Days  
Heating Degree Days 0 0  
Month to date heating degree days 0  
Since 1 June heating degree days 0  
Since 1 July heating degree days 0  
Cooling Degree Days 21 16  
Month to date cooling degree days 519  
Year to date cooling degree days 1909  
Since 1 June cooling degree days 1530  
Growing Degree Days 36 (Base 50)    
Moisture  
Dew Point 59 °F    
Average Humidity 43    
Maximum Humidity 79    
Minimum Humidity 18    
Precipitation  
Precipitation 0.00 in 0.10 in 1.62 in (1974)
Month to date precipitation 2.80  
Year to date precipitation 30.43  
Snow  
Snow 0.00 in - - ()
Month to date snowfall  
Since 1 June snowfall  
Since 1 July snowfall  
Snow Depth -    
Sea Level Pressure  
Sea Level Pressure 30.03 in    
Wind  
Wind Speed 2 mph (ESE)    
Max Wind Speed 9 mph    
Max Gust Speed -    
Visibility 10 miles    
Events      
T = Trace of Precipitation, MM = Missing Value Source: NWS Daily Summary

Daily Weather History Graph

Daily Weather History Graph

Search for Another Location

Airport:

Trip Planner

Search our weather history database for the weather conditions in past years. The results will help you decide how hot, cold, wet, or windy it might be!

Date:

Astronomy

Aug. 29, 2013 Rise Set
Actual Time 6:52 AM CDT 7:48 PM CDT
Civil Twilight 6:27 AM CDT 8:13 PM CDT
Nautical Twilight 5:57 AM CDT 8:43 PM CDT
Astronomical Twilight 5:26 AM CDT 9:14 PM CDT
Moon 12:53 AM CDT (8/29) 3:08 PM CDT (8/29)
Length of Visible Light 13h 46m
Length of Day
12h 55m
Last Quarter, 38% of the Moon is Illuminated
Aug 29
Last Quarter
Sep 5
New
Sep 12
First Quarter
Sep 19
Full
Sep 26
Last Quarter

Hourly Weather History & Observations

Time (CDT) Temp. Heat Index Dew Point Humidity Pressure Visibility Wind Dir Wind Speed Gust Speed Precip Events Conditions
12:15 AM 76.1 °F - 65.7 °F 70% 30.04 in 10.0 mi Calm Calm - N/A   Clear
12:35 AM 80.2 °F 81.5 °F 62.6 °F 55% 30.04 in 10.0 mi ESE 3.5 mph - N/A   Clear
12:55 AM 78.8 °F - 63.5 °F 59% 30.04 in 10.0 mi Calm Calm - N/A   Clear
1:15 AM 78.6 °F - 63.3 °F 59% 30.04 in 10.0 mi Calm Calm - N/A   Clear
1:35 AM 78.3 °F - 63.0 °F 59% 30.04 in 10.0 mi SE 3.5 mph - N/A   Clear
1:55 AM 78.1 °F - 62.6 °F 59% 30.04 in 10.0 mi Calm Calm - N/A   Clear
2:15 AM 77.4 °F - 62.8 °F 61% 30.04 in 10.0 mi Calm Calm - N/A   Clear
2:35 AM 78.8 °F - 62.6 °F 57% 30.04 in 10.0 mi Calm Calm - N/A   Clear
2:55 AM 77.7 °F - 62.6 °F 60% 30.05 in 10.0 mi Calm Calm - N/A   Clear
3:15 AM 77.5 °F - 62.6 °F 60% 30.04 in 10.0 mi Calm Calm - N/A   Clear
3:35 AM 76.3 °F - 62.8 °F 63% 30.05 in 10.0 mi ESE 3.5 mph - N/A   Clear
3:55 AM 76.5 °F - 62.8 °F 62% 30.05 in 10.0 mi Calm Calm - N/A   Clear
4:15 AM 75.6 °F - 63.0 °F 65% 30.05 in 10.0 mi Calm Calm - N/A   Clear
4:35 AM 75.9 °F - 63.3 °F 65% 30.05 in 10.0 mi Calm Calm - N/A   Clear
4:55 AM 75.9 °F - 63.5 °F 65% 30.05 in 10.0 mi Calm Calm - N/A   Clear
5:15 AM 75.4 °F - 63.5 °F 66% 30.06 in 10.0 mi East 3.5 mph - N/A   Scattered Clouds
5:35 AM 75.2 °F - 63.7 °F 67% 30.06 in 10.0 mi Calm Calm - N/A   Scattered Clouds
5:55 AM 75.2 °F - 63.7 °F 67% 30.06 in 10.0 mi Calm Calm - N/A   Mostly Cloudy
6:15 AM 75.7 °F - 63.9 °F 66% 30.06 in 10.0 mi Calm Calm - N/A   Mostly Cloudy
6:35 AM 75.0 °F - 63.7 °F 68% 30.07 in 10.0 mi Calm Calm - N/A   Scattered Clouds
6:55 AM 73.9 °F - 64.0 °F 71% 30.07 in 10.0 mi Calm Calm - N/A   Scattered Clouds
7:15 AM 71.6 °F - 64.8 °F 79% 30.08 in 10.0 mi Calm Calm - N/A   Clear
7:35 AM 72.3 °F - 65.5 °F 79% 30.08 in 10.0 mi Calm Calm - N/A   Clear
7:55 AM 75.9 °F - 65.5 °F 70% 30.08 in 10.0 mi Calm Calm - N/A   Clear
8:15 AM 77.5 °F - 65.5 °F 66% 30.09 in 10.0 mi Calm Calm - N/A   Scattered Clouds
8:35 AM 80.2 °F 81.9 °F 64.4 °F 58% 30.09 in 10.0 mi ESE 3.5 mph - N/A   Scattered Clouds
8:55 AM 81.7 °F 83.3 °F 64.4 °F 56% 30.09 in 10.0 mi SSE 3.5 mph - N/A   Scattered Clouds
9:15 AM 83.5 °F 84.9 °F 64.4 °F 52% 30.10 in 10.0 mi SE 3.5 mph - N/A   Scattered Clouds
9:35 AM 85.3 °F 86.8 °F 64.6 °F 50% 30.10 in 10.0 mi Calm Calm - N/A   Clear
9:55 AM 87.8 °F 89.1 °F 64.2 °F 45% 30.09 in 10.0 mi South 3.5 mph - N/A   Clear
10:15 AM 89.6 °F 90.8 °F 63.7 °F 42% 30.10 in 10.0 mi South 4.6 mph - N/A   Clear
10:35 AM 91.4 °F 92.1 °F 62.2 °F 38% 30.10 in 10.0 mi SSW 5.8 mph - N/A   Clear
10:55 AM 91.9 °F 92.2 °F 61.2 °F 36% 30.09 in 10.0 mi SSW 6.9 mph - N/A   Clear
11:15 AM 92.7 °F 92.5 °F 60.6 °F 34% 30.09 in 10.0 mi WSW 5.8 mph - N/A   Clear
11:35 AM 93.9 °F 92.9 °F 57.9 °F 30% 30.08 in 10.0 mi WSW 4.6 mph - N/A   Clear
11:55 AM 95.4 °F 94.2 °F 57.7 °F 28% 30.07 in 10.0 mi Calm Calm - N/A   Clear
12:15 PM 97.2 °F 96.0 °F 56.7 °F 26% 30.07 in 10.0 mi ESE 9.2 mph - N/A   Scattered Clouds
12:35 PM 96.4 °F 94.6 °F 55.8 °F 25% 30.06 in 10.0 mi Calm Calm - N/A   Scattered Clouds
12:55 PM 97.9 °F 95.8 °F 54.5 °F 23% 30.05 in 10.0 mi North 4.6 mph - N/A   Scattered Clouds
1:15 PM 98.4 °F 96.2 °F 53.6 °F 22% 30.05 in 10.0 mi Calm Calm - N/A   Scattered Clouds
1:35 PM 97.3 °F 95.1 °F 53.8 °F 23% 30.04 in 10.0 mi NE 3.5 mph - N/A   Mostly Cloudy
1:55 PM 97.5 °F 95.3 °F 53.8 °F 23% 30.03 in 10.0 mi NW 5.8 mph - N/A   Scattered Clouds
2:15 PM 98.2 °F - 52.7 °F 22% 30.02 in 10.0 mi West 4.6 mph - N/A   Mostly Cloudy
2:35 PM 96.6 °F - 52.9 °F 23% 30.02 in 10.0 mi East 6.9 mph - N/A   Scattered Clouds
2:55 PM 98.8 °F - 50.4 °F 19% 30.01 in 10.0 mi NW 4.6 mph - N/A   Clear
3:15 PM 99.3 °F - 50.7 °F 19% 30.00 in 10.0 mi East 5.8 mph - N/A   Clear
3:35 PM 98.6 °F - 48.9 °F 19% 29.99 in 10.0 mi North 4.6 mph - N/A   Clear
3:55 PM 99.7 °F - 49.5 °F 18% 29.99 in 10.0 mi Calm Calm - N/A   Mostly Cloudy
4:15 PM 101.1 °F - 50.7 °F 18% 29.99 in 10.0 mi ENE 3.5 mph - N/A   Mostly Cloudy
4:35 PM 97.7 °F - 50.9 °F 21% 29.98 in 10.0 mi Calm Calm - N/A   Scattered Clouds
4:55 PM 99.9 °F - 49.3 °F 18% 29.97 in 10.0 mi SW 3.5 mph - N/A   Clear
5:15 PM 100.4 °F - 49.1 °F 18% 29.96 in 10.0 mi NW 3.5 mph - N/A   Mostly Cloudy
5:35 PM 100.8 °F - 50.4 °F 18% 29.96 in 10.0 mi East 8.1 mph - N/A   Overcast
5:55 PM 100.0 °F - 49.1 °F 18% 29.96 in 10.0 mi ENE 3.5 mph - N/A   Scattered Clouds
6:15 PM 99.0 °F - 49.3 °F 19% 29.96 in 10.0 mi Calm Calm - N/A   Clear
6:35 PM 98.6 °F - 50.5 °F 20% 29.96 in 10.0 mi SE 3.5 mph - N/A   Scattered Clouds
6:55 PM 97.7 °F - 52.5 °F 22% 29.96 in 10.0 mi East 3.5 mph - N/A   Scattered Clouds
7:15 PM 95.4 °F 93.2 °F 54.7 °F 25% 29.96 in 10.0 mi ENE 3.5 mph - N/A   Clear
7:35 PM 92.5 °F 90.4 °F 55.2 °F 28% 29.97 in 10.0 mi East 4.6 mph - N/A   Clear
7:55 PM 91.6 °F 89.8 °F 55.8 °F 30% 29.97 in 10.0 mi East 5.8 mph - N/A   Clear
8:15 PM 89.6 °F 88.1 °F 57.2 °F 33% 29.98 in 10.0 mi East 4.6 mph - N/A   Clear
8:35 PM 89.1 °F 88.0 °F 57.7 °F 35% 29.98 in 10.0 mi East 4.6 mph - N/A   Clear
8:55 PM 88.0 °F 87.1 °F 58.6 °F 37% 29.99 in 10.0 mi Calm Calm - N/A   Clear
9:15 PM 88.2 °F 87.1 °F 58.3 °F 36% 29.99 in 10.0 mi ESE 3.5 mph - N/A   Clear
9:35 PM 85.6 °F 85.4 °F 60.1 °F 42% 29.99 in 10.0 mi Calm Calm - N/A   Clear
9:55 PM 84.7 °F 84.6 °F 60.3 °F 43% 29.99 in 10.0 mi Calm Calm - N/A   Clear
10:15 PM 84.7 °F 84.6 °F 60.3 °F 43% 30.00 in 10.0 mi Calm Calm - N/A   Clear
10:35 PM 83.1 °F 83.3 °F 60.6 °F 46% 30.00 in 10.0 mi ESE 3.5 mph - N/A   Clear
10:55 PM 81.7 °F 82.3 °F 61.0 °F 49% 30.01 in 10.0 mi Calm Calm - N/A   Clear
11:15 PM 81.5 °F 82.2 °F 61.2 °F 50% 30.01 in 10.0 mi SE 4.6 mph - N/A   Clear
11:35 PM 81.3 °F 82.1 °F 61.2 °F 50% 30.01 in 10.0 mi SE 4.6 mph - N/A   Clear
11:55 PM 79.9 °F - 61.5 °F 53% 30.01 in 10.0 mi SE 4.6 mph - N/A   Clear